Time,TemperatureF,DewpointF,PressureIn,WindDirection,WindDirectionDegrees,WindSpeedMPH,WindSpeedGustMPH,Humidity,HourlyPrecipIn,Conditions,Clouds,dailyrainin,SoftwareType,DateUTC
2013-02-10 00:02:00,36.5,33.8,29.46,ESE,115,5.0,14.0,90,0.04,,,0.01,Wunderground v.1.15,2013-02-10 06:02:00,
2013-02-10 00:07:00,36.5,33.8,29.46,SE,137,4.0,14.0,90,0.04,,,0.01,Wunderground v.1.15,2013-02-10 06:07:00,
2013-02-10 00:12:00,36.5,34.1,29.46,ESE,112,8.0,8.0,91,0.04,,,0.01,Wunderground v.1.15,2013-02-10 06:12:00,
2013-02-10 00:25:00,36.7,34.3,29.46,ESE,109,6.0,6.0,91,0.00,,,0.02,Wunderground v.1.15,2013-02-10 06:25:00,
2013-02-10 00:31:00,36.9,34.5,29.46,SE,134,5.0,7.0,91,0.00,,,0.02,Wunderground v.1.15,2013-02-10 06:31:00,
2013-02-10 00:37:00,36.9,34.5,29.45,SSE,157,1.0,11.0,91,0.04,,,0.03,Wunderground v.1.15,2013-02-10 06:37:00,
2013-02-10 00:42:00,37.0,-99.9,29.45,SE,136,14.0,14.0,255,0.04,,,0.03,Wunderground v.1.15,2013-02-10 06:42:00,
2013-02-10 00:47:00,37.0,34.6,29.44,SSE,154,1.0,14.0,91,0.04,,,0.03,Wunderground v.1.15,2013-02-10 06:47:00,
2013-02-10 00:52:00,37.2,34.8,29.45,SE,140,2.0,8.0,91,0.00,,,0.03,Wunderground v.1.15,2013-02-10 06:52:00,
2013-02-10 00:58:00,37.1,34.7,29.44,SSE,155,6.0,11.0,91,0.00,,,0.04,Wunderground v.1.15,2013-02-10 06:58:00,
2013-02-10 01:03:00,37.2,-99.9,29.43,SE,133,8.0,11.0,255,0.00,,,0.04,Wunderground v.1.15,2013-02-10 07:03:00,
2013-02-10 01:09:00,37.2,34.8,29.43,ESE,102,2.0,15.0,91,0.04,,,0.05,Wunderground v.1.15,2013-02-10 07:09:00,
2013-02-10 01:14:00,37.4,35.0,29.43,SE,132,7.0,9.0,91,0.04,,,0.05,Wunderground v.1.15,2013-02-10 07:14:00,
2013-02-10 01:20:00,37.5,35.1,29.43,SE,145,5.0,5.0,91,0.04,,,0.05,Wunderground v.1.15,2013-02-10 07:20:00,
2013-02-10 01:26:00,37.4,35.3,29.43,ESE,111,2.0,9.0,92,0.00,,,0.05,Wunderground v.1.15,2013-02-10 07:26:00,
2013-02-10 01:45:00,37.8,35.4,29.41,SE,136,10.0,10.0,91,0.00,,,0.06,Wunderground v.1.15,2013-02-10 07:45:00,
2013-02-10 01:50:00,38.1,35.7,29.42,ESE,109,8.0,10.0,91,0.00,,,0.06,Wunderground v.1.15,2013-02-10 07:50:00,
2013-02-10 01:55:00,37.8,35.4,29.41,SE,128,6.0,7.0,91,0.00,,,0.07,Wunderground v.1.15,2013-02-10 07:55:00,
2013-02-10 02:00:00,37.9,35.5,29.41,SE,141,7.0,7.0,91,0.00,,,0.07,Wunderground v.1.15,2013-02-10 08:00:00,
2013-02-10 02:05:00,38.0,35.6,29.42,SE,136,6.0,12.0,91,0.00,,,0.07,Wunderground v.1.15,2013-02-10 08:05:00,
2013-02-10 02:11:00,38.1,35.7,29.42,SE,132,8.0,8.0,91,0.00,,,0.07,Wunderground v.1.15,2013-02-10 08:11:00,
2013-02-10 02:16:00,38.2,35.8,29.41,SSE,160,6.0,13.0,91,0.00,,,0.07,Wunderground v.1.15,2013-02-10 08:16:00,
2013-02-10 02:21:00,38.2,35.8,29.41,SE,124,4.0,5.0,91,0.00,,,0.07,Wunderground v.1.15,2013-02-10 08:21:00,
2013-02-10 02:26:00,38.4,36.0,29.40,SE,132,7.0,11.0,91,0.00,,,0.08,Wunderground v.1.15,2013-02-10 08:26:00,
2013-02-10 02:31:00,38.4,36.0,29.40,SSE,150,11.0,12.0,91,0.00,,,0.08,Wunderground v.1.15,2013-02-10 08:31:00,
2013-02-10 02:36:00,38.5,36.1,29.39,ESE,109,7.0,15.0,91,0.00,,,0.08,Wunderground v.1.15,2013-02-10 08:36:00,
2013-02-10 02:42:00,38.5,36.1,29.38,ESE,113,8.0,8.0,91,0.00,,,0.08,Wunderground v.1.15,2013-02-10 08:42:00,
2013-02-10 02:47:00,38.5,36.4,29.38,ESE,107,11.0,18.0,92,0.00,,,0.08,Wunderground v.1.15,2013-02-10 08:47:00,
2013-02-10 02:52:00,38.5,36.4,29.38,ESE,103,6.0,9.0,92,0.00,,,0.09,Wunderground v.1.15,2013-02-10 08:52:00,
2013-02-10 02:58:00,38.5,36.4,29.38,SE,138,5.0,14.0,92,0.00,,,0.09,Wunderground v.1.15,2013-02-10 08:58:00,
2013-02-10 03:04:00,38.4,36.3,29.38,ESE,121,7.0,7.0,92,0.00,,,0.09,Wunderground v.1.15,2013-02-10 09:04:00,
2013-02-10 03:09:00,38.4,36.3,29.37,SE,131,0.0,11.0,92,0.00,,,0.09,Wunderground v.1.15,2013-02-10 09:09:00,
2013-02-10 03:15:00,38.5,36.4,29.37,ESE,115,5.0,11.0,92,0.00,,,0.09,Wunderground v.1.15,2013-02-10 09:15:00,
2013-02-10 03:20:00,38.6,36.5,29.36,ESE,113,4.0,7.0,92,0.00,,,0.10,Wunderground v.1.15,2013-02-10 09:20:00,
2013-02-10 03:26:00,38.7,36.6,29.36,SE,134,11.0,11.0,92,0.00,,,0.10,Wunderground v.1.15,2013-02-10 09:26:00,
2013-02-10 03:31:00,38.8,36.7,29.36,ESE,113,4.0,9.0,92,0.00,,,0.10,Wunderground v.1.15,2013-02-10 09:31:00,
2013-02-10 03:36:00,38.8,36.7,29.35,ESE,109,5.0,11.0,92,0.00,,,0.10,Wunderground v.1.15,2013-02-10 09:36:00,
2013-02-10 03:41:00,38.6,36.5,29.34,ESE,109,5.0,12.0,92,0.00,,,0.11,Wunderground v.1.15,2013-02-10 09:41:00,
2013-02-10 03:47:00,38.4,36.3,29.34,ESE,113,4.0,12.0,92,0.00,,,0.11,Wunderground v.1.15,2013-02-10 09:47:00,
2013-02-10 03:53:00,38.4,36.6,29.34,ESE,123,6.0,9.0,93,0.00,,,0.11,Wunderground v.1.15,2013-02-10 09:53:00,
2013-02-10 03:59:00,38.5,36.7,29.33,East,97,7.0,15.0,93,0.00,,,0.12,Wunderground v.1.15,2013-02-10 09:59:00,
2013-02-10 04:04:00,38.5,36.7,29.33,East,99,7.0,11.0,93,0.00,,,0.12,Wunderground v.1.15,2013-02-10 10:04:00,
2013-02-10 04:09:00,38.5,36.4,29.33,East,91,6.0,13.0,92,0.00,,,0.12,Wunderground v.1.15,2013-02-10 10:09:00,
2013-02-10 04:14:00,38.5,36.7,29.32,East,101,0.0,11.0,93,0.04,,,0.13,Wunderground v.1.15,2013-02-10 10:14:00,
2013-02-10 04:19:00,38.4,36.6,29.32,East,100,0.0,11.0,93,0.04,,,0.13,Wunderground v.1.15,2013-02-10 10:19:00,
2013-02-10 04:24:00,38.5,36.7,29.31,ESE,107,2.0,9.0,93,0.04,,,0.13,Wunderground v.1.15,2013-02-10 10:24:00,
2013-02-10 04:30:00,38.7,36.9,29.31,ESE,107,0.0,4.0,93,0.04,,,0.13,Wunderground v.1.15,2013-02-10 10:30:00,
2013-02-10 04:36:00,38.9,37.0,29.31,ESE,107,0.0,9.0,93,0.00,,,0.14,Wunderground v.1.15,2013-02-10 10:36:00,
2013-02-10 04:41:00,39.0,37.1,29.31,ESE,108,9.0,9.0,93,0.00,,,0.14,Wunderground v.1.15,2013-02-10 10:41:00,
2013-02-10 04:46:00,39.2,37.3,29.30,ESE,106,0.0,12.0,93,0.00,,,0.14,Wunderground v.1.15,2013-02-10 10:46:00,
2013-02-10 04:52:00,39.1,37.2,29.30,East,98,4.0,4.0,93,0.00,,,0.14,Wunderground v.1.15,2013-02-10 10:52:00,
2013-02-10 04:57:00,39.1,37.2,29.29,East,95,5.0,9.0,93,0.00,,,0.15,Wunderground v.1.15,2013-02-10 10:57:00,
2013-02-10 05:02:00,38.9,37.0,29.29,ESE,121,5.0,12.0,93,0.00,,,0.15,Wunderground v.1.15,2013-02-10 11:02:00,
2013-02-10 05:08:00,38.8,36.9,29.30,ESE,105,1.0,12.0,93,0.00,,,0.15,Wunderground v.1.15,2013-02-10 11:08:00,
2013-02-10 05:12:00,38.8,36.9,29.29,ESE,102,6.0,9.0,93,0.00,,,0.15,Wunderground v.1.15,2013-02-10 11:12:00,
2013-02-10 05:17:00,38.8,36.9,29.29,ESE,110,5.0,11.0,93,0.00,,,0.16,Wunderground v.1.15,2013-02-10 11:17:00,
2013-02-10 05:22:00,38.7,36.9,29.29,ESE,112,6.0,12.0,93,0.00,,,0.16,Wunderground v.1.15,2013-02-10 11:22:00,
2013-02-10 05:28:00,38.8,36.9,29.28,East,92,7.0,12.0,93,0.00,,,0.16,Wunderground v.1.15,2013-02-10 11:28:00,
2013-02-10 05:33:00,38.9,37.0,29.27,ESE,104,4.0,11.0,93,0.00,,,0.17,Wunderground v.1.15,2013-02-10 11:33:00,
2013-02-10 05:38:00,38.9,37.3,29.27,ESE,111,6.0,14.0,94,0.00,,,0.17,Wunderground v.1.15,2013-02-10 11:38:00,
2013-02-10 05:43:00,39.0,37.4,29.26,ESE,102,7.0,9.0,94,0.00,,,0.17,Wunderground v.1.15,2013-02-10 11:43:00,
2013-02-10 05:48:00,39.1,37.2,29.26,East,94,2.0,13.0,93,0.00,,,0.17,Wunderground v.1.15,2013-02-10 11:48:00,
2013-02-10 05:53:00,39.1,37.2,29.25,East,91,6.0,16.0,93,0.00,,,0.17,Wunderground v.1.15,2013-02-10 11:53:00,
2013-02-10 05:59:00,39.0,37.1,29.25,East,89,7.0,16.0,93,0.00,,,0.18,Wunderground v.1.15,2013-02-10 11:59:00,
2013-02-10 06:04:00,39.0,37.1,29.25,East,100,6.0,12.0,93,0.00,,,0.18,Wunderground v.1.15,2013-02-10 12:04:00,
2013-02-10 06:09:00,38.9,37.0,29.24,ESE,108,12.0,14.0,93,0.00,,,0.18,Wunderground v.1.15,2013-02-10 12:09:00,
2013-02-10 06:15:00,38.9,37.3,29.24,SE,124,4.0,14.0,94,0.00,,,0.18,Wunderground v.1.15,2013-02-10 12:15:00,
2013-02-10 06:20:00,38.9,37.0,29.24,ESE,112,5.0,5.0,93,0.00,,,0.19,Wunderground v.1.15,2013-02-10 12:20:00,
2013-02-10 06:25:00,39.0,37.4,29.24,ESE,110,7.0,15.0,94,0.00,,,0.19,Wunderground v.1.15,2013-02-10 12:25:00,
2013-02-10 06:30:00,39.1,37.5,29.23,East,97,5.0,15.0,94,0.00,,,0.19,Wunderground v.1.15,2013-02-10 12:30:00,
2013-02-10 06:35:00,39.2,37.6,29.22,ESE,117,2.0,15.0,94,0.00,,,0.19,Wunderground v.1.15,2013-02-10 12:35:00,
2013-02-10 06:40:00,39.3,37.7,29.22,East,95,7.0,10.0,94,0.00,,,0.19,Wunderground v.1.15,2013-02-10 12:40:00,
2013-02-10 06:45:00,39.5,37.6,29.22,East,98,9.0,13.0,93,0.00,,,0.20,Wunderground v.1.15,2013-02-10 12:45:00,
2013-02-10 06:50:00,39.4,-99.9,29.22,East,100,5.0,5.0,255,0.00,,,0.20,Wunderground v.1.15,2013-02-10 12:50:00,
2013-02-10 06:55:00,39.3,37.7,29.21,East,96,7.0,13.0,94,0.00,,,0.20,Wunderground v.1.15,2013-02-10 12:55:00,
2013-02-10 07:01:00,39.3,37.7,29.21,ESE,110,11.0,11.0,94,0.00,,,0.20,Wunderground v.1.15,2013-02-10 13:01:00,
2013-02-10 07:06:00,39.7,38.1,29.21,ESE,123,7.0,12.0,94,0.00,,,0.21,Wunderground v.1.15,2013-02-10 13:06:00,
2013-02-10 07:11:00,40.0,38.4,29.21,SE,132,0.0,8.0,94,0.00,,,0.21,Wunderground v.1.15,2013-02-10 13:11:00,
2013-02-10 07:16:00,40.6,39.0,29.21,SSE,153,8.0,20.0,94,0.00,,,0.21,Wunderground v.1.15,2013-02-10 13:16:00,
2013-02-10 07:21:00,-3.3,-4.6,29.21,SE,138,6.0,13.0,94,0.00,,,0.21,Wunderground v.1.15,2013-02-10 13:21:00,
2013-02-10 07:27:00,41.8,40.2,29.21,SE,144,5.0,13.0,94,0.00,,,0.22,Wunderground v.1.15,2013-02-10 13:27:00,
2013-02-10 07:33:00,41.9,40.6,29.21,SSE,150,16.0,16.0,95,0.00,,,0.22,Wunderground v.1.15,2013-02-10 13:33:00,
2013-02-10 07:38:00,42.5,40.9,29.20,SE,142,0.0,24.0,94,0.00,,,0.22,Wunderground v.1.15,2013-02-10 13:38:00,
2013-02-10 07:45:00,42.4,40.8,29.20,ESE,105,7.0,13.0,94,0.00,,,0.22,Wunderground v.1.15,2013-02-10 13:45:00,
2013-02-10 07:50:00,42.5,40.9,29.19,East,83,5.0,5.0,94,0.00,,,0.23,Wunderground v.1.15,2013-02-10 13:50:00,
2013-02-10 07:56:00,42.8,41.2,29.19,East,101,2.0,21.0,94,0.00,,,0.23,Wunderground v.1.15,2013-02-10 13:56:00,
2013-02-10 08:02:00,42.9,41.3,29.19,ESE,123,13.0,18.0,94,0.00,,,0.23,Wunderground v.1.15,2013-02-10 14:02:00,
2013-02-10 08:07:00,43.1,41.5,29.18,East,88,5.0,18.0,94,0.00,,,0.23,Wunderground v.1.15,2013-02-10 14:07:00,
2013-02-10 08:12:00,43.3,41.7,29.19,SE,144,12.0,15.0,94,0.00,,,0.24,Wunderground v.1.15,2013-02-10 14:12:00,
2013-02-10 08:17:00,43.4,41.5,29.18,SE,128,15.0,16.0,93,0.00,,,0.24,Wunderground v.1.15,2013-02-10 14:17:00,
2013-02-10 08:23:00,43.5,41.6,29.18,ESE,111,7.0,19.0,93,0.00,,,0.24,Wunderground v.1.15,2013-02-10 14:23:00,
2013-02-10 08:29:00,43.6,41.7,29.17,SSE,153,11.0,19.0,93,0.00,,,0.24,Wunderground v.1.15,2013-02-10 14:29:00,
2013-02-10 08:34:00,43.7,41.8,29.17,SSE,150,7.0,14.0,93,0.00,,,0.25,Wunderground v.1.15,2013-02-10 14:34:00,
2013-02-10 08:39:00,43.8,42.2,29.16,ESE,120,4.0,14.0,94,0.00,,,0.25,Wunderground v.1.15,2013-02-10 14:39:00,
2013-02-10 08:45:00,44.0,42.1,29.16,SE,124,2.0,15.0,93,0.00,,,0.25,Wunderground v.1.15,2013-02-10 14:45:00,
2013-02-10 08:50:00,44.0,42.4,29.16,ESE,117,5.0,5.0,94,0.00,,,0.25,Wunderground v.1.15,2013-02-10 14:50:00,
2013-02-10 08:56:00,44.2,42.3,29.15,East,94,7.0,16.0,93,0.00,,,0.25,Wunderground v.1.15,2013-02-10 14:56:00,
2013-02-10 09:01:00,44.3,42.4,29.15,SSE,159,8.0,8.0,93,0.00,,,0.26,Wunderground v.1.15,2013-02-10 15:01:00,
2013-02-10 09:06:00,44.4,42.5,29.14,SE,136,2.0,18.0,93,0.00,,,0.26,Wunderground v.1.15,2013-02-10 15:06:00,
2013-02-10 09:11:00,44.7,42.8,29.14,SSE,152,5.0,17.0,93,0.00,,,0.26,Wunderground v.1.15,2013-02-10 15:11:00,
2013-02-10 09:16:00,44.7,42.8,29.13,SSE,159,9.0,17.0,93,0.00,,,0.26,Wunderground v.1.15,2013-02-10 15:16:00,
2013-02-10 09:21:00,44.7,42.8,29.13,SE,132,8.0,9.0,93,0.00,,,0.27,Wunderground v.1.15,2013-02-10 15:21:00,
2013-02-10 09:27:00,44.8,43.2,29.12,SE,138,5.0,20.0,94,0.00,,,0.27,Wunderground v.1.15,2013-02-10 15:27:00,
2013-02-10 09:32:00,44.9,43.0,29.12,SSE,165,11.0,18.0,93,0.00,,,0.27,Wunderground v.1.15,2013-02-10 15:32:00,
2013-02-10 09:37:00,45.1,43.5,29.11,East,101,8.0,18.0,94,0.00,,,0.27,Wunderground v.1.15,2013-02-10 15:37:00,
2013-02-10 09:43:00,45.4,43.8,29.11,SE,136,4.0,19.0,94,0.00,,,0.28,Wunderground v.1.15,2013-02-10 15:43:00,
2013-02-10 09:48:00,45.5,43.9,29.11,SSE,150,13.0,19.0,94,0.00,,,0.28,Wunderground v.1.15,2013-02-10 15:48:00,
2013-02-10 09:53:00,45.6,44.0,29.10,East,98,1.0,9.0,94,0.00,,,0.28,Wunderground v.1.15,2013-02-10 15:53:00,
2013-02-10 09:58:00,45.7,44.1,29.09,SE,133,14.0,18.0,94,0.00,,,0.28,Wunderground v.1.15,2013-02-10 15:58:00,
2013-02-10 10:03:00,45.8,44.2,29.09,SE,137,5.0,13.0,94,0.00,,,0.28,Wunderground v.1.15,2013-02-10 16:03:00,
2013-02-10 10:08:00,46.0,44.4,29.09,SSE,148,7.0,14.0,94,0.00,,,0.28,Wunderground v.1.15,2013-02-10 16:08:00,
2013-02-10 10:13:00,46.2,44.6,29.09,SE,133,2.0,21.0,94,0.00,,,0.29,Wunderground v.1.15,2013-02-10 16:13:00,
2013-02-10 10:18:00,46.5,44.9,29.10,SSE,159,11.0,21.0,94,0.00,,,0.29,Wunderground v.1.15,2013-02-10 16:18:00,
2013-02-10 10:23:00,46.6,45.0,29.09,SE,144,11.0,15.0,94,0.00,,,0.29,Wunderground v.1.15,2013-02-10 16:23:00,
2013-02-10 10:28:00,46.8,45.2,29.09,SSE,153,9.0,17.0,94,0.00,,,0.29,Wunderground v.1.15,2013-02-10 16:28:00,
2013-02-10 10:34:00,47.0,45.4,29.08,SE,143,9.0,14.0,94,0.00,,,0.29,Wunderground v.1.15,2013-02-10 16:34:00,
2013-02-10 10:39:00,47.2,45.6,29.09,SSE,151,14.0,20.0,94,0.00,,,0.29,Wunderground v.1.15,2013-02-10 16:39:00,
2013-02-10 10:44:00,47.4,45.8,29.08,SE,131,5.0,19.0,94,0.00,,,0.30,Wunderground v.1.15,2013-02-10 16:44:00,
2013-02-10 10:49:00,47.8,46.2,29.08,SSE,166,10.0,19.0,94,0.00,,,0.30,Wunderground v.1.15,2013-02-10 16:49:00,
2013-02-10 10:54:00,48.2,46.6,29.08,SSE,162,7.0,22.0,94,0.00,,,0.30,Wunderground v.1.15,2013-02-10 16:54:00,
2013-02-10 11:00:00,48.8,47.2,29.08,SSE,148,12.0,22.0,94,0.00,,,0.30,Wunderground v.1.15,2013-02-10 17:00:00,
2013-02-10 11:05:00,49.2,47.3,29.07,SE,144,13.0,20.0,93,0.00,,,0.30,Wunderground v.1.15,2013-02-10 17:05:00,
2013-02-10 11:10:00,49.6,47.7,29.07,SSE,148,11.0,11.0,93,0.00,,,0.30,Wunderground v.1.15,2013-02-10 17:10:00,
2013-02-10 11:15:00,49.8,47.6,29.07,SSE,166,10.0,18.0,92,0.00,,,0.30,Wunderground v.1.15,2013-02-10 17:15:00,
2013-02-10 11:21:00,50.0,48.6,29.07,East,96,18.0,18.0,95,0.00,,,0.31,Wunderground v.1.15,2013-02-10 17:21:00,
2013-02-10 11:26:00,50.2,47.7,29.07,SSE,159,7.0,21.0,91,0.00,,,0.31,Wunderground v.1.15,2013-02-10 17:26:00,
2013-02-10 11:31:00,50.3,47.5,29.07,SE,146,9.0,14.0,90,0.00,,,0.31,Wunderground v.1.15,2013-02-10 17:31:00,
2013-02-10 11:36:00,50.4,47.6,29.06,South,171,13.0,15.0,90,0.00,,,0.31,Wunderground v.1.15,2013-02-10 17:36:00,
2013-02-10 11:42:00,50.5,47.7,29.06,SSE,155,8.0,14.0,90,0.00,,,0.31,Wunderground v.1.15,2013-02-10 17:42:00,
2013-02-10 11:47:00,50.4,47.6,29.05,SE,136,5.0,14.0,90,0.00,,,0.32,Wunderground v.1.15,2013-02-10 17:47:00,
2013-02-10 11:52:00,50.6,47.8,29.05,SSE,153,17.0,17.0,90,0.00,,,0.32,Wunderground v.1.15,2013-02-10 17:52:00,
2013-02-10 11:57:00,50.6,47.8,29.05,SSE,153,12.0,17.0,90,0.00,,,0.32,Wunderground v.1.15,2013-02-10 17:57:00,
2013-02-10 12:02:00,50.8,48.0,29.05,SSE,168,12.0,19.0,90,0.00,,,0.32,Wunderground v.1.15,2013-02-10 18:02:00,
2013-02-10 12:07:00,50.7,47.6,29.04,SSE,157,5.0,19.0,89,0.00,,,0.33,Wunderground v.1.15,2013-02-10 18:07:00,
2013-02-10 12:14:00,51.0,48.2,29.04,SSE,159,13.0,13.0,90,0.00,,,0.33,Wunderground v.1.15,2013-02-10 18:14:00,
2013-02-10 12:20:00,50.7,47.9,29.04,SSE,160,7.0,7.0,90,0.00,,,0.33,Wunderground v.1.15,2013-02-10 18:20:00,
2013-02-10 12:25:00,50.8,48.0,29.04,South,173,6.0,13.0,90,0.00,,,0.33,Wunderground v.1.15,2013-02-10 18:25:00,
2013-02-10 12:31:00,50.9,48.1,29.03,SE,140,9.0,10.0,90,0.00,,,0.34,Wunderground v.1.15,2013-02-10 18:31:00,
2013-02-10 12:36:00,51.1,48.3,29.03,SSE,166,6.0,16.0,90,0.00,,,0.34,Wunderground v.1.15,2013-02-10 18:36:00,
2013-02-10 12:41:00,51.2,48.4,29.02,South,171,13.0,13.0,90,0.00,,,0.34,Wunderground v.1.15,2013-02-10 18:41:00,
2013-02-10 12:46:00,51.5,48.7,29.02,SSE,160,12.0,17.0,90,0.00,,,0.34,Wunderground v.1.15,2013-02-10 18:46:00,
2013-02-10 12:51:00,51.6,48.5,29.02,SSE,151,6.0,12.0,89,0.00,,,0.35,Wunderground v.1.15,2013-02-10 18:51:00,
2013-02-10 12:56:00,51.8,48.7,29.01,South,180,12.0,15.0,89,0.00,,,0.35,Wunderground v.1.15,2013-02-10 18:56:00,
2013-02-10 13:02:00,52.1,49.0,29.02,SSE,165,15.0,15.0,89,0.00,,,0.35,Wunderground v.1.15,2013-02-10 19:02:00,
2013-02-10 13:08:00,52.5,49.0,29.01,South,170,13.0,17.0,88,0.00,,,0.35,Wunderground v.1.15,2013-02-10 19:08:00,
2013-02-10 13:13:00,52.7,49.2,29.01,SSE,166,14.0,15.0,88,0.00,,,0.35,Wunderground v.1.15,2013-02-10 19:13:00,
2013-02-10 13:18:00,53.1,49.6,29.00,SE,145,12.0,16.0,88,0.00,,,0.36,Wunderground v.1.15,2013-02-10 19:18:00,
2013-02-10 13:23:00,53.8,50.3,29.00,South,174,11.0,18.0,88,0.00,,,0.36,Wunderground v.1.15,2013-02-10 19:23:00,
2013-02-10 13:28:00,54.7,50.6,28.99,SSE,159,8.0,22.0,86,0.00,,,0.36,Wunderground v.1.15,2013-02-10 19:28:00,
2013-02-10 13:34:00,55.1,50.7,28.99,SSE,159,7.0,18.0,85,0.00,,,0.36,Wunderground v.1.15,2013-02-10 19:34:00,
2013-02-10 13:39:00,55.5,51.1,28.98,SSE,158,8.0,22.0,85,0.00,,,0.37,Wunderground v.1.15,2013-02-10 19:39:00,
2013-02-10 13:44:00,56.0,50.9,28.98,ESE,122,15.0,20.0,83,0.00,,,0.37,Wunderground v.1.15,2013-02-10 19:44:00,
2013-02-10 13:50:00,56.3,50.9,28.97,South,173,26.0,26.0,82,0.00,,,0.37,Wunderground v.1.15,2013-02-10 19:50:00,
2013-02-10 13:55:00,56.6,50.5,28.97,South,173,13.0,23.0,80,0.00,,,0.37,Wunderground v.1.15,2013-02-10 19:55:00,
2013-02-10 14:00:00,56.7,51.3,28.97,South,177,17.0,17.0,82,0.00,,,0.37,Wunderground v.1.15,2013-02-10 20:00:00,
2013-02-10 14:05:00,56.9,51.1,28.97,South,183,11.0,19.0,81,0.00,,,0.37,Wunderground v.1.15,2013-02-10 20:05:00,
2013-02-10 14:10:00,57.1,51.0,28.98,South,182,7.0,14.0,80,0.00,,,0.38,Wunderground v.1.15,2013-02-10 20:10:00,
2013-02-10 14:15:00,57.5,50.7,28.97,South,180,15.0,26.0,78,0.00,,,0.38,Wunderground v.1.15,2013-02-10 20:15:00,
2013-02-10 14:20:00,57.9,50.4,28.98,South,183,11.0,24.0,76,0.00,,,0.38,Wunderground v.1.15,2013-02-10 20:20:00,
2013-02-10 14:25:00,58.5,50.6,28.97,South,176,11.0,29.0,75,0.00,,,0.38,Wunderground v.1.15,2013-02-10 20:25:00,
2013-02-10 14:30:00,58.8,50.5,28.97,SSW,192,7.0,13.0,74,0.00,,,0.38,Wunderground v.1.15,2013-02-10 20:30:00,
2013-02-10 14:35:00,59.3,49.9,28.96,South,179,23.0,23.0,71,0.00,,,0.39,Wunderground v.1.15,2013-02-10 20:35:00,
2013-02-10 14:40:00,59.5,50.5,28.96,South,188,11.0,16.0,72,0.00,,,0.39,Wunderground v.1.15,2013-02-10 20:40:00,
2013-02-10 14:46:00,59.6,49.8,28.96,South,171,18.0,20.0,70,0.00,,,0.39,Wunderground v.1.15,2013-02-10 20:46:00,
2013-02-10 14:51:00,60.7,-99.9,28.96,SSE,167,11.0,15.0,255,0.00,,,0.39,Wunderground v.1.15,2013-02-10 20:51:00,
2013-02-10 14:56:00,60.0,49.0,28.96,SSE,166,19.0,19.0,67,0.00,,,0.39,Wunderground v.1.15,2013-02-10 20:56:00,
2013-02-10 15:02:00,60.0,48.6,28.96,South,171,11.0,19.0,66,0.00,,,0.39,Wunderground v.1.15,2013-02-10 21:02:00,
2013-02-10 15:07:00,60.2,48.8,28.96,South,175,15.0,21.0,66,0.00,,,0.39,Wunderground v.1.15,2013-02-10 21:07:00,
2013-02-10 15:12:00,60.3,48.5,28.95,South,171,13.0,14.0,65,0.00,,,0.39,Wunderground v.1.15,2013-02-10 21:12:00,
2013-02-10 15:17:00,60.6,48.4,28.95,South,170,8.0,25.0,64,0.00,,,0.39,Wunderground v.1.15,2013-02-10 21:17:00,
2013-02-10 15:23:00,60.7,48.0,28.95,SSE,158,13.0,18.0,63,0.00,,,0.39,Wunderground v.1.15,2013-02-10 21:23:00,
2013-02-10 15:29:00,60.9,46.5,28.95,SSE,159,17.0,25.0,59,0.00,,,0.40,Wunderground v.1.15,2013-02-10 21:29:00,
2013-02-10 15:34:00,61.1,45.3,28.96,SSE,163,10.0,19.0,56,0.00,,,0.40,Wunderground v.1.15,2013-02-10 21:34:00,
2013-02-10 15:39:00,61.3,43.0,28.96,South,189,12.0,21.0,51,0.00,,,0.40,Wunderground v.1.15,2013-02-10 21:39:00,
2013-02-10 15:44:00,61.5,38.8,28.96,South,177,9.0,23.0,43,0.00,,,0.40,Wunderground v.1.15,2013-02-10 21:44:00,
2013-02-10 15:49:00,61.6,37.0,28.96,SSW,205,16.0,23.0,40,0.00,,,0.40,Wunderground v.1.15,2013-02-10 21:49:00,
2013-02-10 15:57:00,61.4,35.5,28.96,SSW,206,8.0,21.0,38,0.00,,,0.40,Wunderground v.1.15,2013-02-10 21:57:00,
2013-02-10 16:03:00,61.3,35.5,28.97,SSW,201,17.0,23.0,38,0.00,,,0.40,Wunderground v.1.15,2013-02-10 22:03:00,
2013-02-10 16:08:00,61.2,36.0,28.97,SW,221,12.0,23.0,39,0.00,,,0.40,Wunderground v.1.15,2013-02-10 22:08:00,
2013-02-10 16:13:00,61.1,34.6,28.97,South,178,14.0,24.0,37,0.00,,,0.40,Wunderground v.1.15,2013-02-10 22:13:00,
2013-02-10 16:18:00,60.9,35.1,28.97,South,188,11.0,24.0,38,0.00,,,0.40,Wunderground v.1.15,2013-02-10 22:18:00,
2013-02-10 16:23:00,60.8,33.7,28.97,South,182,11.0,23.0,36,0.00,,,0.40,Wunderground v.1.15,2013-02-10 22:23:00,
2013-02-10 16:29:00,60.7,34.3,28.98,SSW,192,8.0,23.0,37,0.00,,,0.40,Wunderground v.1.15,2013-02-10 22:29:00,
2013-02-10 16:35:00,60.5,34.7,28.99,SSW,194,16.0,16.0,38,0.00,,,0.40,Wunderground v.1.15,2013-02-10 22:35:00,
2013-02-10 16:40:00,60.2,35.1,28.99,SW,218,5.0,18.0,39,0.00,,,0.40,Wunderground v.1.15,2013-02-10 22:40:00,
2013-02-10 16:45:00,60.1,35.0,29.00,SW,215,4.0,9.0,39,0.00,,,0.40,Wunderground v.1.15,2013-02-10 22:45:00,
2013-02-10 16:50:00,59.6,34.6,29.00,WSW,241,12.0,20.0,39,0.00,,,0.40,Wunderground v.1.15,2013-02-10 22:50:00,
2013-02-10 16:56:00,59.0,33.4,29.01,WSW,240,12.0,20.0,38,0.00,,,0.40,Wunderground v.1.15,2013-02-10 22:56:00,
2013-02-10 17:01:00,58.5,33.6,29.01,SSW,205,10.0,18.0,39,0.00,,,0.40,Wunderground v.1.15,2013-02-10 23:01:00,
2013-02-10 17:06:00,58.0,33.2,29.02,WSW,237,11.0,27.0,39,0.00,,,0.40,Wunderground v.1.15,2013-02-10 23:06:00,
2013-02-10 17:11:00,57.6,34.1,29.02,WSW,248,14.0,19.0,41,0.00,,,0.40,Wunderground v.1.15,2013-02-10 23:11:00,
2013-02-10 17:16:00,57.1,33.6,29.03,SW,225,6.0,22.0,41,0.00,,,0.40,Wunderground v.1.15,2013-02-10 23:16:00,
2013-02-10 17:22:00,56.7,34.4,29.03,WSW,238,11.0,21.0,43,0.00,,,0.40,Wunderground v.1.15,2013-02-10 23:22:00,
2013-02-10 17:27:00,56.4,-99.9,29.04,WSW,252,11.0,21.0,255,0.00,,,0.40,Wunderground v.1.15,2013-02-10 23:27:00,
2013-02-10 17:32:00,55.9,34.3,29.04,SW,217,14.0,28.0,44,0.00,,,0.40,Wunderground v.1.15,2013-02-10 23:32:00,
2013-02-10 17:37:00,55.7,34.1,29.04,SW,225,7.0,28.0,44,0.00,,,0.40,Wunderground v.1.15,2013-02-10 23:37:00,
2013-02-10 17:42:00,-999.9,-99.9,29.05,SSW,209,8.0,13.0,45,0.00,,,0.40,Wunderground v.1.15,2013-02-10 23:42:00,
2013-02-10 17:48:00,54.9,34.5,29.06,SW,224,7.0,24.0,46,0.00,,,0.40,Wunderground v.1.15,2013-02-10 23:48:00,
2013-02-10 17:53:00,54.6,-99.9,29.06,South,191,6.0,14.0,255,0.00,,,0.40,Wunderground v.1.15,2013-02-10 23:53:00,
2013-02-10 17:58:00,54.2,33.9,29.06,South,190,13.0,23.0,46,0.00,,,0.40,Wunderground v.1.15,2013-02-10 23:58:00,
2013-02-10 18:03:00,54.1,34.3,29.07,SSW,212,6.0,17.0,47,0.00,,,0.40,Wunderground v.1.15,2013-02-11 00:03:00,
2013-02-10 18:09:00,53.7,33.4,29.07,SSW,213,23.0,31.0,46,0.00,,,0.40,Wunderground v.1.15,2013-02-11 00:09:00,
2013-02-10 18:14:00,54.1,-99.9,29.08,SSW,202,7.0,24.0,255,0.00,,,0.40,Wunderground v.1.15,2013-02-11 00:14:00,
2013-02-10 18:20:00,53.3,33.6,29.08,SSW,208,10.0,24.0,47,0.00,,,0.40,Wunderground v.1.15,2013-02-11 00:20:00,
2013-02-10 18:25:00,53.1,33.4,29.08,SSW,213,8.0,25.0,47,0.00,,,0.40,Wunderground v.1.15,2013-02-11 00:25:00,
2013-02-10 18:30:00,53.0,33.3,29.08,SW,234,16.0,27.0,47,0.00,,,0.40,Wunderground v.1.15,2013-02-11 00:30:00,
2013-02-10 18:35:00,52.8,33.6,29.08,WSW,242,8.0,24.0,48,0.00,,,0.40,Wunderground v.1.15,2013-02-11 00:35:00,
2013-02-10 18:40:00,52.3,33.7,29.09,SW,219,9.0,9.0,49,0.00,,,0.40,Wunderground v.1.15,2013-02-11 00:40:00,
2013-02-10 18:46:00,52.0,33.9,29.09,West,263,13.0,26.0,50,0.00,,,0.40,Wunderground v.1.15,2013-02-11 00:46:00,
2013-02-10 18:51:00,52.3,-99.9,29.09,SW,225,18.0,18.0,255,0.00,,,0.40,Wunderground v.1.15,2013-02-11 00:51:00,
2013-02-10 18:56:00,51.7,33.6,29.09,SSW,200,16.0,18.0,50,0.00,,,0.40,Wunderground v.1.15,2013-02-11 00:56:00,
2013-02-10 19:02:00,51.8,33.2,29.09,SW,215,10.0,19.0,49,0.00,,,0.40,Wunderground v.1.15,2013-02-11 01:02:00,
2013-02-10 19:07:00,51.7,33.1,29.10,SSW,208,8.0,23.0,49,0.00,,,0.40,Wunderground v.1.15,2013-02-11 01:07:00,
2013-02-10 19:12:00,-90.0,-98.7,29.10,SSW,211,7.0,26.0,50,0.00,,,0.40,Wunderground v.1.15,2013-02-11 01:12:00,
2013-02-10 19:17:00,-999.9,-99.9,29.10,SW,235,21.0,26.0,50,0.00,,,0.40,Wunderground v.1.15,2013-02-11 01:17:00,
2013-02-10 19:22:00,51.3,33.3,29.10,WSW,254,13.0,24.0,50,0.00,,,0.40,Wunderground v.1.15,2013-02-11 01:22:00,
2013-02-10 19:27:00,51.8,34.2,29.11,WSW,238,19.0,24.0,51,0.00,,,0.40,Wunderground v.1.15,2013-02-11 01:27:00,
2013-02-10 19:32:00,51.1,33.6,29.11,SSW,202,12.0,28.0,51,0.00,,,0.40,Wunderground v.1.15,2013-02-11 01:32:00,
2013-02-10 19:38:00,51.0,33.0,29.10,SW,218,17.0,28.0,50,0.00,,,0.40,Wunderground v.1.15,2013-02-11 01:38:00,
2013-02-10 19:43:00,51.0,33.5,29.11,SW,215,9.0,15.0,51,0.00,,,0.40,Wunderground v.1.15,2013-02-11 01:43:00,
2013-02-10 19:48:00,50.8,33.8,29.11,WSW,240,6.0,20.0,52,0.00,,,0.40,Wunderground v.1.15,2013-02-11 01:48:00,
2013-02-10 19:54:00,50.5,34.0,29.11,SW,233,10.0,15.0,53,0.00,,,0.40,Wunderground v.1.15,2013-02-11 01:54:00,
2013-02-10 19:59:00,51.3,34.7,29.12,SSW,202,18.0,18.0,53,0.00,,,0.40,Wunderground v.1.15,2013-02-11 01:59:00,
2013-02-10 20:04:00,50.0,34.5,29.12,South,185,16.0,18.0,55,0.00,,,0.40,Wunderground v.1.15,2013-02-11 02:04:00,
2013-02-10 20:09:00,49.8,34.3,29.12,SW,224,7.0,20.0,55,0.00,,,0.40,Wunderground v.1.15,2013-02-11 02:09:00,
2013-02-10 20:15:00,49.4,34.3,29.12,SW,217,12.0,20.0,56,0.00,,,0.40,Wunderground v.1.15,2013-02-11 02:15:00,
2013-02-10 20:20:00,49.1,34.1,29.12,SW,234,6.0,11.0,56,0.00,,,0.40,Wunderground v.1.15,2013-02-11 02:20:00,
2013-02-10 20:25:00,48.8,32.9,29.13,WSW,237,16.0,26.0,54,0.00,,,0.40,Wunderground v.1.15,2013-02-11 02:25:00,
2013-02-10 20:32:00,48.6,32.2,29.12,SSW,211,6.0,18.0,53,0.00,,,0.40,Wunderground v.1.15,2013-02-11 02:32:00,
2013-02-10 20:37:00,48.5,32.1,29.12,SW,218,7.0,31.0,53,0.00,,,0.40,Wunderground v.1.15,2013-02-11 02:37:00,
2013-02-10 20:42:00,48.3,32.4,29.13,WSW,247,5.0,13.0,54,0.00,,,0.40,Wunderground v.1.15,2013-02-11 02:42:00,
2013-02-10 20:47:00,48.2,32.3,29.13,SW,231,15.0,19.0,54,0.00,,,0.40,Wunderground v.1.15,2013-02-11 02:47:00,
2013-02-10 20:52:00,48.0,32.6,29.14,SW,236,17.0,21.0,55,0.00,,,0.40,Wunderground v.1.15,2013-02-11 02:52:00,
2013-02-10 20:57:00,47.8,32.9,29.14,WSW,245,14.0,21.0,56,0.00,,,0.40,Wunderground v.1.15,2013-02-11 02:57:00,
2013-02-10 21:02:00,47.1,33.1,29.15,SW,232,11.0,18.0,58,0.00,,,0.40,Wunderground v.1.15,2013-02-11 03:02:00,
2013-02-10 21:08:00,46.7,33.5,29.15,WSW,246,15.0,20.0,60,0.00,,,0.40,Wunderground v.1.15,2013-02-11 03:08:00,
2013-02-10 21:13:00,46.3,32.7,29.15,WSW,243,4.0,25.0,59,0.00,,,0.40,Wunderground v.1.15,2013-02-11 03:13:00,
2013-02-10 21:18:00,46.2,33.5,29.16,WSW,242,12.0,25.0,61,0.00,,,0.40,Wunderground v.1.15,2013-02-11 03:18:00,
2013-02-10 21:23:00,45.9,31.9,29.16,SW,214,6.0,20.0,58,0.00,,,0.40,Wunderground v.1.15,2013-02-11 03:23:00,
2013-02-10 21:28:00,45.7,31.3,29.16,SW,219,6.0,31.0,57,0.00,,,0.40,Wunderground v.1.15,2013-02-11 03:28:00,
2013-02-10 21:33:00,45.2,30.4,29.17,West,267,6.0,31.0,56,0.00,,,0.40,Wunderground v.1.15,2013-02-11 03:33:00,
2013-02-10 21:38:00,44.8,30.5,29.17,West,259,10.0,31.0,57,0.00,,,0.40,Wunderground v.1.15,2013-02-11 03:38:00,
2013-02-10 21:44:00,44.5,30.2,29.17,SW,217,9.0,34.0,57,0.00,,,0.40,Wunderground v.1.15,2013-02-11 03:44:00,
2013-02-10 21:49:00,44.2,29.9,29.17,WSW,257,23.0,34.0,57,0.00,,,0.40,Wunderground v.1.15,2013-02-11 03:49:00,
2013-02-10 21:54:00,44.1,30.3,29.17,South,190,9.0,22.0,58,0.00,,,0.40,Wunderground v.1.15,2013-02-11 03:54:00,
2013-02-10 21:59:00,43.8,30.0,29.18,WSW,250,10.0,23.0,58,0.00,,,0.40,Wunderground v.1.15,2013-02-11 03:59:00,
2013-02-10 22:04:00,43.7,30.3,29.18,WSW,244,20.0,20.0,59,0.00,,,0.40,Wunderground v.1.15,2013-02-11 04:04:00,
2013-02-10 22:09:00,43.7,29.9,29.18,SW,232,4.0,21.0,58,0.00,,,0.40,Wunderground v.1.15,2013-02-11 04:09:00,
2013-02-10 22:15:00,43.7,29.9,29.18,WSW,257,17.0,25.0,58,0.00,,,0.40,Wunderground v.1.15,2013-02-11 04:15:00,
2013-02-10 22:20:00,43.8,30.4,29.18,SW,227,6.0,6.0,59,0.00,,,0.40,Wunderground v.1.15,2013-02-11 04:20:00,
2013-02-10 22:26:00,43.6,30.2,29.19,WSW,242,8.0,23.0,59,0.00,,,0.40,Wunderground v.1.15,2013-02-11 04:26:00,
2013-02-10 22:32:00,43.6,30.2,29.18,SW,214,17.0,19.0,59,0.00,,,0.40,Wunderground v.1.15,2013-02-11 04:32:00,
2013-02-10 22:37:00,43.5,30.1,29.19,WSW,252,13.0,19.0,59,0.00,,,0.40,Wunderground v.1.15,2013-02-11 04:37:00,
2013-02-10 22:42:00,43.5,30.5,29.19,WSW,244,12.0,15.0,60,0.00,,,0.40,Wunderground v.1.15,2013-02-11 04:42:00,
2013-02-10 22:47:00,43.9,30.5,29.20,WSW,249,12.0,21.0,59,0.00,,,0.40,Wunderground v.1.15,2013-02-11 04:47:00,
2013-02-10 22:52:00,43.8,30.4,29.20,West,274,12.0,17.0,59,0.00,,,0.40,Wunderground v.1.15,2013-02-11 04:52:00,
2013-02-10 22:57:00,-999.9,-99.9,29.20,West,265,27.0,27.0,255,0.00,,,0.40,Wunderground v.1.15,2013-02-11 04:57:00,
2013-02-10 23:00:00,43.1,29.3,29.20,WSW,242,14.0,14.0,58,0.00,,,0.40,Wunderground v.1.15,2013-02-11 05:00:00,
2013-02-10 23:01:00,43.0,29.2,29.20,WNW,285,14.0,14.0,58,0.00,,,0.40,Wunderground v.1.15,2013-02-11 05:01:00,
2013-02-10 23:07:00,42.9,28.7,29.21,WSW,254,15.0,41.0,57,0.00,,,0.40,Wunderground v.1.15,2013-02-11 05:07:00,
2013-02-10 23:12:00,42.5,28.8,29.21,SW,223,13.0,38.0,58,0.00,,,0.40,Wunderground v.1.15,2013-02-11 05:12:00,
2013-02-10 23:17:00,42.3,29.0,29.21,SW,222,8.0,38.0,59,0.00,,,0.40,Wunderground v.1.15,2013-02-11 05:17:00,
2013-02-10 23:23:00,42.0,28.7,29.22,SSW,210,8.0,22.0,59,0.00,,,0.40,Wunderground v.1.15,2013-02-11 05:23:00,
2013-02-10 23:29:00,41.7,28.4,29.22,WSW,244,7.0,33.0,59,0.00,,,0.40,Wunderground v.1.15,2013-02-11 05:29:00,
2013-02-10 23:34:00,41.5,28.6,29.23,SW,232,28.0,28.0,60,0.00,,,0.40,Wunderground v.1.15,2013-02-11 05:34:00,
2013-02-10 23:39:00,41.3,28.4,29.23,WSW,254,23.0,34.0,60,0.00,,,0.40,Wunderground v.1.15,2013-02-11 05:39:00,
2013-02-10 23:45:00,41.1,28.7,29.24,WSW,246,13.0,33.0,61,0.00,,,0.40,Wunderground v.1.15,2013-02-11 05:45:00,
2013-02-10 23:50:00,40.8,28.0,29.24,WSW,256,8.0,33.0,60,0.00,,,0.40,Wunderground v.1.15,2013-02-11 05:50:00,
2013-02-10 23:55:00,40.6,27.8,29.25,West,262,6.0,27.0,60,0.00,,,0.40,Wunderground v.1.15,2013-02-11 05:55:00,